Regional Weather Roundup
Issued by NWS San Diego, CA

Home | Current Version | Previous Version | Text Only | Print | Product List | Glossary On
Versions: 1 2 3 4 5 6 7 8 9 10 11 12 13 14 15 16 17 18 19 20 21 22 23 24 25 26 27 28 29 30 31 32 33 34 35 36 37 38 39 40 41 42 43 44 45 46 47 48 49 50
752
ASUS46 KSGX 251810
RWRSGX

SAN DIEGO HOURLY WEATHER ROUNDUP
NATIONAL WEATHER SERVICE SAN DIEGO CA
1100 AM PDT THU AUG 25 2016

NOTE: "FAIR" INDICATES FEW OR NO CLOUDS BELOW 12,000 FEET WITH NO
SIGNIFICANT WEATHER AND/OR OBSTRUCTIONS TO VISIBILITY.

CAZ042-043-060-061-PZZ750-775-251900-

GREATER SAN DIEGO AREA

CITY           SKY/WX    TMP DP  RH WIND       PRES   REMARKS
LINDBERGH FLD  MOSUNNY   73  61  65 VRB5      29.99S
POINT LOMA       N/A     73  59  61 W10         N/A
NATIONAL CITY    N/A     73  64  73 NW2       29.99S
CHULA VISTA      N/A     74  65  75 W2        29.91R
IMPERIAL BEACH MOSUNNY   74  61  63 W12       29.99S
BROWN FIELD    SUNNY     74  61  63 VRB7      29.98S
MIRAMAR MCAS   MOSUNNY   76  60  57 VRB5      29.98S
MONTGOMERY FLD SUNNY     75  60  59 W7        29.98S

$$

NORTH SAN DIEGO COUNTY

CITY           SKY/WX    TMP DP  RH WIND       PRES   REMARKS
CAMP PENDLETON MOSUNNY   69  63  81 S8        29.96F
OCEANSIDE AP   SUNNY     72  60  66 SW8       29.96S
OCEANSIDE HBR    N/A     69  64  85 SW12      30.00S
VISTA            N/A     74  64  70 SW3       29.94S
CARLSBAD       SUNNY     70  62  76 SW9       29.97S
DEL MAR          N/A     73  64  74 CALM      30.00S
LA JOLLA SCRIP   N/A     69  64  85 SW3       29.98R
FALLBROOK        N/A     76  65  69 SW5       29.95S
ESCONDIDO        N/A     80  64  58 CALM      29.98S
SAN MARCOS       N/A     74  62  66 SW1       30.00S
POWAY            N/A     79  64  60 NW3       29.97S

$$

EAST SAN DIEGO COUNTY

CITY           SKY/WX    TMP DP  RH WIND       PRES   REMARKS
RAMONA         SUNNY     78  61  55 NW7       29.99S
SANTEE LAKES     N/A     78  64  62 SE2       29.95S
LA MESA          N/A     74  63  69 CALM      29.90S
JAMUL            N/A     77  66  68 CALM      29.96R
DESCANSO N       N/A     84  49  30 SW2       29.86S
MT. LAGUNA OBS   N/A     76  33  21 W10       29.78S
CAMPO            N/A     84  46  26 SW15      29.99S

$$

ORANGE COUNTY AND THE LOS ANGELES BASIN

CITY           SKY/WX    TMP DP  RH WIND       PRES   REMARKS
JOHN WAYNE AP  MOSUNNY   74  61  63 SW9       29.96F
LAGUNA BEACH     N/A     71  64  77 SW3       29.92S
LAKE FOREST FR   N/A     74  59  57 CALM      29.86F
HUNTINGTON BCH   N/A     74  65  72 S7        29.99S
LOS ALAMITOS   MOSUNNY   74  61  63 S7        29.96F
FULLERTON      SUNNY     77  59  53 S6        29.95F
LONG BEACH     MOSUNNY   72  61  68 VRB5      29.96F
L.A. AP        MOSUNNY   72  60  66 VRB6      29.96F
L.A. DOWNTOWN  SUNNY     75  60  59 CALM      29.95F

$$

THE INLAND EMPIRE

CITY           SKY/WX    TMP DP  RH WIND       PRES   REMARKS
CORONA         SUNNY     77  62  59 SW5       29.96F
CHINO          SUNNY     81  58  45 CALM      29.97F
ONTARIO        SUNNY     79  57  46 SE5       29.97S
SAN BERNARDINO SUNNY     82  54  36 CALM      29.97F HAZE
RIVERSIDE AP   SUNNY     79  58  48 W6        29.96F
MORENO VALLEY    N/A     82  58  44 S2        28.09F
MARCH ARB      SUNNY     81  53  37 E5        29.97F
HORSETHIEF CYN   N/A     81  54  38 CALM      29.95F
PERRIS           N/A     82  57  42 SW6       29.98S
HEMET EAST       N/A     79  50  36 W3        29.81F
FRENCH VALLEY  FAIR      79  57  47 S6        29.98F
TEMECULA         N/A     77  63  60 SW5       30.02F

$$

SAN BERNARDINO AND RIVERSIDE COUNTY MOUNTAINS

CITY           SKY/WX    TMP DP  RH WIND       PRES   REMARKS
BIG BEAR AP    SUNNY     70  32  24 SW8G17    30.27S
PINE COVE        N/A     73  36  26 W2        29.88S

$$

SOUTHERN DESERT INCLUDING THE COACHELLA VALLEY

CITY           SKY/WX    TMP DP  RH WIND       PRES   REMARKS
PALM SPRINGS   SUNNY     93  59  31 VRB6      29.89F
THOUSAND PALMS   N/A     92  64  38 S5        29.85F
PALM DESERT      N/A     96  64  34 CALM      29.76F HX  98
THERMAL        SUNNY     94  64  37 S9        29.83F HX  95
BLYTHE         SUNNY     97  62  31 S17G25    29.87F HX  98
IMPERIAL AP    SUNNY     98  66  34 E8        29.83F HX 101
EL CENTRO NAS  SUNNY     96  62  32 CALM      29.85F HX  97
YUMA AZ        SUNNY     97  67  37 S16       29.87  HX 101
MEXICALI       SUNNY     95  66  38 SE12      29.86F HX  98

$$

UPPER DESERT

CITY           SKY/WX    TMP DP  RH WIND       PRES   REMARKS
VICTORVILLE AP MOSUNNY   88  36  15 SW3       30.00F
HESPERIA         N/A     90  44  20 W15       29.94F
PALMDALE       SUNNY     90  42  18 W12G20    29.98F
LANCASTER      SUNNY     92  39  15 W16       29.96F
EDWARDS AFB    SUNNY     89  25   9 SW9       29.94F
DAGGETT        SUNNY     94  39  14 NW12G20   29.93F
29 PALMS N     MOSUNNY   93  35  13 SE8       30.01F
NEEDLES        MOSUNNY  100  47  16 S7        29.88F HX  96

$$

REGIONAL REPORTS

CITY           SKY/WX    TMP DP  RH WIND       PRES   REMARKS
SANTA BARBARA  MOSUNNY   68  62  81 S8        29.96S
SANDBERG       SUNNY     82  39  21 SW9       30.13S
LAS VEGAS NV   MOSUNNY   96  30   9 S9G18     29.90F
PHOENIX AZ     MOSUNNY   94  52  24 VRB5      29.94F
TIJUANA        SUNNY     73  59  60 NW5       30.01S
ENSENADA NW      N/A     69  32  25 W7        29.93S

$$

OFFSHORE ISLANDS

CITY           SKY/WX    TMP DP  RH WIND       PRES   REMARKS
CATALINA ARPT  SUNNY     68  59  73 VRB6      30.00F
SAN CLEMENTE I PTSUNNY   65  56  72 W14       30.00F
SAN NICOLAS IS PTSUNNY   64  56  75 W15       29.99S

$$

MARINE AND OFFSHORE BUOY REPORTS

STATION/POSITION SKY/WX   TEMP    WIND        PRES    SWELL
                          AIR SEA DIR/SP/G            HT/PER/DIR
                          (F)     (DEG/KT/KT) (MB)    (FT/S/D)

$$





USA.gov is the U.S. government's official web portal to all federal, state and local government web resources and services.